Weather History for KUIL - May, 2013

Change the Weather History Date:

Wednesday, May 15, 2013

  Actual Average Record
Temperature  
Mean Temperature 54 °F 51 °F  
Max Temperature 58 °F 60 °F 85 °F (2006)
Min Temperature 50 °F 43 °F 31 °F (1982)
Degree Days  
Heating Degree Days 11 14  
Month to date heating degree days 141 225  
Since 1 July heating degree days 4897 5267  
Cooling Degree Days 0 0  
Month to date cooling degree days 3 0  
Year to date cooling degree days 3 0  
Growing Degree Days 4 (Base 50)    
Moisture  
Dew Point 49 °F    
Average Humidity 83    
Maximum Humidity 93    
Minimum Humidity 72    
Precipitation  
Precipitation 0.22 in 0.16 in 1.85 in (2001)
Month to date precipitation 2.12 2.68  
Year to date precipitation 51.15 46.32  
Sea Level Pressure  
Sea Level Pressure 30.04 in    
Wind  
Wind Speed 4 mph (SE)    
Max Wind Speed 10 mph    
Max Gust Speed 15 mph    
Visibility 6 miles    
Events Rain    
T = Trace of Precipitation, MM = Missing Value Source: NWS Daily Summary

Daily Weather History Graph

Daily Weather History Graph

Search for Another Location

Airport or City:

Trip Planner

Search our weather history database for the weather conditions in past years. The results will help you decide how hot, cold, wet, or windy it might be!

Date:

Astronomy

May. 15, 2013 Rise Set
Actual Time 5:39 AM PDT 8:50 PM PDT
Civil Twilight 5:02 AM PDT 9:27 PM PDT
Nautical Twilight 4:13 AM PDT 10:16 PM PDT
Astronomical Twilight 3:13 AM PDT 11:17 PM PDT
Moon 10:25 AM PDT (5/15) 12:36 AM PDT (5/15)
Length of Visible Light 16h 25m
Length of Day
15h 11m
Waxing Crescent, 28% of the Moon is Illuminated
May 15
Waxing Crescent
May 17
First Quarter
May 24
Full
May 31
Last Quarter
Jun 8
New

Hourly Weather History & Observations

Time (PDT) Temp. Dew Point Humidity Pressure Visibility Wind Dir Wind Speed Gust Speed Precip Events Conditions
12:53 AM 50.0 °F 46.0 °F 86% 30.12 in 8.0 mi Calm Calm - N/A   Overcast
1:53 AM 51.1 °F 46.0 °F 83% 30.12 in 6.0 mi East 3.5 mph - 0.00 in Rain Light Rain
2:53 AM 50.0 °F 46.0 °F 86% 30.11 in 5.0 mi Calm Calm - 0.05 in Rain Light Rain
3:53 AM 50.0 °F 46.0 °F 86% 30.10 in 7.0 mi East 3.5 mph - 0.00 in   Overcast
4:53 AM 50.0 °F 46.0 °F 86% 30.08 in 7.0 mi East 5.8 mph - N/A   Overcast
5:53 AM 50.0 °F 46.0 °F 86% 30.07 in 8.0 mi East 4.6 mph - N/A   Overcast
6:53 AM 50.0 °F 46.0 °F 86% 30.07 in 7.0 mi ENE 5.8 mph - N/A   Overcast
7:53 AM 51.1 °F 46.0 °F 83% 30.07 in 8.0 mi East 6.9 mph - N/A   Overcast
8:53 AM 53.1 °F 48.0 °F 83% 30.07 in 7.0 mi ESE 3.5 mph - 0.00 in   Overcast
9:53 AM 55.9 °F 48.0 °F 75% 30.07 in 8.0 mi SSW 3.5 mph - 0.00 in   Overcast
10:53 AM 55.9 °F 46.9 °F 72% 30.07 in 7.0 mi South 9.2 mph - 0.00 in Rain Light Rain
11:53 AM 55.9 °F 48.9 °F 77% 30.08 in 5.0 mi SSW 6.9 mph - 0.01 in Rain Light Rain
12:44 PM 55.4 °F 50.0 °F 82% 30.07 in 5.0 mi South 6.9 mph - 0.00 in Rain Light Rain
12:53 PM 55.9 °F 50.0 °F 80% 30.07 in 5.0 mi South 9.2 mph - 0.00 in Rain Light Rain
1:26 PM 55.4 °F 48.2 °F 77% 30.06 in 6.0 mi Variable 5.8 mph - 0.00 in Rain Light Rain
1:53 PM 55.0 °F 46.9 °F 74% 30.06 in 6.0 mi Variable 5.8 mph - 0.00 in Rain Light Rain
2:53 PM 57.0 °F 50.0 °F 77% 30.05 in 6.0 mi SSW 5.8 mph - 0.00 in Rain Light Rain
3:27 PM 57.2 °F 50.0 °F 77% 30.04 in 6.0 mi Variable 3.5 mph - 0.00 in Rain Light Rain
3:53 PM 57.9 °F 48.9 °F 72% 30.04 in 7.0 mi Calm Calm - 0.00 in Rain Light Rain
4:05 PM 57.2 °F 48.2 °F 72% 30.03 in 7.0 mi South 3.5 mph - 0.00 in Rain Light Rain
4:40 PM 57.2 °F 50.0 °F 77% 30.03 in 7.0 mi SSW 4.6 mph - 0.00 in   Overcast
4:53 PM 57.0 °F 48.9 °F 74% 30.03 in 6.0 mi SW 3.5 mph - 0.00 in Rain Light Rain
5:53 PM 57.0 °F 48.0 °F 72% 30.02 in 7.0 mi SW 4.6 mph - 0.01 in Rain Light Rain
6:36 PM 55.4 °F 50.0 °F 82% 30.01 in 7.0 mi SSW 4.6 mph - 0.00 in   Overcast
6:53 PM 55.9 °F 50.0 °F 80% 30.01 in 2.5 mi Calm Calm - 0.00 in Rain Light Rain
7:08 PM 55.4 °F 51.8 °F 88% 30.00 in 3.0 mi SSE 3.5 mph - 0.01 in Rain Light Rain
7:53 PM 55.9 °F 51.1 °F 84% 30.00 in 5.0 mi East 3.5 mph - 0.02 in Rain Light Rain
8:23 PM 55.4 °F 50.0 °F 82% 29.99 in 6.0 mi East 3.5 mph - 0.01 in Rain Light Rain
8:53 PM 55.0 °F 50.0 °F 83% 29.99 in 8.0 mi ENE 4.6 mph - 0.01 in   Overcast
9:34 PM 53.6 °F 50.0 °F 88% 29.99 in 1.8 mi East 3.5 mph - 0.01 in Rain Light Rain
9:53 PM 54.0 °F 50.0 °F 86% 29.99 in 2.0 mi East 3.5 mph - 0.03 in Rain Light Rain
10:03 PM 53.6 °F 51.8 °F 94% 29.99 in 4.0 mi Calm Calm - 0.01 in Rain Light Rain
10:16 PM 53.6 °F 51.8 °F 94% 29.99 in 4.0 mi East 3.5 mph - 0.01 in Rain Light Rain
10:53 PM 54.0 °F 51.1 °F 90% 29.99 in 5.0 mi East 3.5 mph - 0.02 in Rain Light Rain
11:16 PM 53.6 °F 51.8 °F 94% 29.99 in 2.5 mi ESE 3.5 mph - 0.01 in Rain Light Rain
11:37 PM 53.6 °F 51.8 °F 94% 29.99 in 1.5 mi Calm Calm - 0.02 in Rain Light Rain
11:46 PM 53.6 °F 51.8 °F 94% 29.99 in 1.2 mi ESE 3.5 mph - 0.02 in Rain Light Rain
11:53 PM 54.0 °F 51.1 °F 90% 29.99 in 1.0 mi ESE 3.5 mph - 0.04 in Rain Rain